Flag Weather past 2 weeks in Cuiabá, Mato Grosso, Brazil

Now
81 °F

Scattered clouds.


Feels Like: 85 °F
Forecast: 75 / 86 °F
Wind: 5 mph from Northeast

Location: Cuiaba Aeroporto

Current Time: Nov 27, 2014 at 8:14:43 AM

Latest Report: Nov 27, 2014 at 8:00 AM


Visibility: N/A

Pressure: 29.86 "Hg

Humidity: 74%

Dew point: 72 °F

Location of CuiabáLocation

Historic Weather in Cuiabá — Graph

°F

Cuiabá temperature yesterday

Maximum temperature yesterday: 88 °F (at 2:00 PM)
Minimum temperature yesterday: 77 °F (at 2:00 AM)
Average temperature yesterday: 81 °F

Past Weeks' High & Low Weather Summary

 TemperatureHumidityPressure
High99 °F (Nov 18, 2:00 PM)100% (Nov 13, 7:00 AM)29.98 "Hg (Nov 13, 7:00 AM)
Low72 °F (Nov 22, 3:00 AM)25% (Nov 17, 2:00 PM)29.65 "Hg (Nov 12, 4:00 PM)
Average82 °F68%29.84 "Hg
* Reported Nov 12 7:00 AM — Nov 27 7:00 AM, Cuiabá, Weather by CustomWeather, © 2014

Note: Actual official high and low records may vary slightly from our data, if they occured in-between our weather recording intervals... More about our weather records

Advertising

Cuiabá weather history for previous 24 hours

 ConditionsComfort  
Time TempWeatherWind HumidityBarometerVisibility
7:00 AM
Nov 27
77 °FSunny.No wind83%29.86 "Hg10 mi
6:00 AM75 °FPassing clouds.5 mph89%29.83 "HgN/A
5:00 AM75 °FPassing clouds.3 mph89%29.80 "Hg10 mi
4:00 AM75 °FPassing clouds.6 mph89%29.83 "Hg10 mi
3:00 AM77 °FPassing clouds.6 mph79%29.83 "HgN/A
2:00 AM75 °FPassing clouds.3 mph89%29.86 "HgN/A
1:00 AM77 °FPassing clouds.5 mph83%29.86 "HgN/A
12:00 AM77 °FPassing clouds.5 mph89%29.86 "HgN/A
11:00 PM
Nov 26
77 °FClear.1 mph83%29.86 "Hg10 mi
10:00 PM77 °FPassing clouds.5 mph83%29.86 "HgN/A
9:00 PM77 °FPartly cloudy.5 mph83%29.83 "HgN/A
8:00 PM79 °FThunderstorms. Mostly cloudy.5 mph79%29.80 "HgN/A
7:00 PM79 °FRain. Partly cloudy.7 mphN/AN/AN/A
6:00 PM86 °FPartly sunny.5 mph66%29.77 "HgN/A
5:00 PM88 °FBroken clouds.6 mph59%29.74 "HgN/A
4:00 PM88 °FBroken clouds.5 mph59%29.74 "HgN/A
3:00 PM88 °FBroken clouds.9 mph59%29.77 "HgN/A
2:00 PM88 °FBroken clouds.10 mph55%29.80 "HgN/A
1:00 PM84 °FBroken clouds.10 mph74%29.83 "HgN/A
12:00 PM81 °FBroken clouds.7 mph84%29.86 "HgN/A
11:00 AM81 °FRain. Partly sunny.10 mph79%29.89 "Hg1 mi
10:00 AM82 °FScattered showers. Broken clouds.7 mph74%29.86 "HgN/A
9:00 AM82 °FBroken clouds.9 mph74%29.86 "HgN/A
8:00 AM82 °FScattered clouds.7 mph74%29.83 "HgN/A
Weather by CustomWeather, © 2014

See weather overviewHow to use our weather pages